Overview Statistics Trail Chart Weather Telemetry Raw packets
 

This is the latest recevied weather packets stored in our database for station/object G4WLC-1. If no packets are shown the sender has not sent any weather packets the latest 10 day(s).

<< 112 113 114 115 >>
Time Temp. Humidity Pressure Rain* Wind** Luminosity Snow
1787811444 16.67° C 93% 1007.8 hPa 3.56 mm - - -
1787811144 16.67° C 93% 1007.8 hPa 3.56 mm - - -
1787810844 16.67° C 93% 1007.8 hPa 3.81 mm - - -
1787810547 16.67° C 93% 1008 hPa 4.32 mm - - -
1787810244 16.67° C 93% 1008 hPa 5.84 mm - - -
1787809944 16.67° C 93% 1008.1 hPa 6.35 mm - - -
1787809644 16.67° C 93% 1008.3 hPa 7.11 mm - - -
1787809344 16.67° C 92% 1008.3 hPa 7.11 mm - - -
1787809044 16.67° C 92% 1008.2 hPa 6.6 mm - - -
1787808744 16.67° C 92% 1008.1 hPa 6.1 mm - - -
1787808444 16.67° C 92% 1008 hPa 5.33 mm - - -
1787808144 16.67° C 92% 1008 hPa 4.83 mm - - -
1787807844 16.67° C 92% 1008 hPa 4.57 mm - - -
1787807544 16.67° C 92% 1008.2 hPa 4.57 mm - - -
1787807244 17.22° C 91% 1008.1 hPa 4.32 mm - - -
1787806944 17.22° C 91% 1008.3 hPa 3.56 mm - - -
1787806644 17.22° C 91% 1008.3 hPa 2.03 mm - - -
1787806345 17.22° C 91% 1008.1 hPa 1.27 mm - - -
1787806044 17.22° C 90% 1008 hPa 0.51 mm - - -
1787805744 17.22° C 90% 1007.7 hPa 0.25 mm - - -
1787805445 17.22° C 90% 1007.4 hPa 0 mm - - -
1787805144 17.22° C 90% 1007.1 hPa 0 mm - - -
1787804844 17.22° C 90% 1007.4 hPa 0 mm - - -

* Rain latest hour (hover to see other rain measurements)
** Current wind speed in m/s (hover to see current wind gust speed)